| time (UTC) | temp C | wind direction | speed KPH | gust KPH | rain 1hr cm | rain 24hr cm | rain mn cm | humidity % | barometer mb |
| 20260505124810 | 8 | 42 | 14.5 | 29.0 | 0.00 | 0.00 | 0.33 | 91 | 318.5 |
| 20260505123754 | 8 | 40 | 8.0 | 19.3 | 0.00 | 0.00 | 0.33 | 93 | 327.1 |
| 20260505123254 | 9 | 37 | 4.8 | 19.3 | 0.00 | 0.00 | 0.33 | 93 | 309.6 |
| 20260505122238 | 9 | 32 | 9.7 | 20.9 | 0.00 | 0.00 | 0.33 | 94 | 336.6 |
| 20260505121738 | 9 | 34 | 4.8 | 20.9 | 0.00 | 0.00 | 0.33 | 94 | 356.5 |
| 20260505121238 | 9 | 22 | 6.4 | 19.3 | 0.00 | 0.00 | 0.33 | 93 | 375.1 |
| 20260505115706 | 9 | 47 | 6.4 | 17.7 | 0.00 | 0.00 | 0.33 | 93 | 529.4 |
| 20260505115205 | 9 | 2 | 4.8 | 17.7 | 0.00 | 0.00 | 0.33 | 94 | 767.0 |
| 20260505114705 | 9 | 8 | 3.2 | 19.3 | 0.00 | 0.00 | 0.33 | 93 | 441.4 |
| 20260505114205 | 9 | 41 | 4.8 | 19.3 | 0.00 | 0.00 | 0.33 | 93 | 324.8 |
| 20260505113705 | 9 | 42 | 6.4 | 22.5 | 0.00 | 0.00 | 0.33 | 93 | 335.9 |
| 20260505113204 | 9 | 52 | 6.4 | 22.5 | 0.00 | 0.00 | 0.33 | 93 | 321.3 |
| 20260505112703 | 9 | 49 | 6.4 | 24.1 | 0.03 | 0.00 | 0.33 | 93 | 346.2 |
| 20260505112203 | 9 | 32 | 9.7 | 24.1 | 0.08 | 0.00 | 0.33 | 93 | 340.3 |
| 20260505111147 | 9 | 38 | 12.9 | 29.0 | 0.08 | 0.00 | 0.33 | 93 | 309.9 |
| 20260505110646 | 9 | 36 | 9.7 | 22.5 | 0.08 | 0.00 | 0.33 | 93 | 313.9 |
| 20260505110145 | 9 | 35 | 6.4 | 32.2 | 0.08 | 0.00 | 0.33 | 93 | 311.8 |
| 20260505102121 | 10 | 22 | 9.7 | 20.9 | 0.05 | 0.00 | 0.25 | 92 | 389.2 |
| 20260505101620 | 10 | 24 | 6.4 | 19.3 | 0.05 | 0.00 | 0.25 | 92 | 373.5 |
| 20260505101119 | 10 | 39 | 8.0 | 25.7 | 0.05 | 0.00 | 0.25 | 92 | 329.0 |
| 20260505095042 | 10 | 28 | 8.0 | 20.9 | 0.05 | 0.00 | 0.25 | 92 | 451.0 |
| 20260505094541 | 10 | 12 | 6.4 | 20.9 | 0.05 | 0.00 | 0.25 | 91 | 408.1 |
| 20260505093524 | 10 | 37 | 11.3 | 25.7 | 0.00 | 0.00 | 0.23 | 91 | 384.8 |
| 20260505092508 | 11 | 34 | 6.4 | 22.5 | 0.00 | 0.00 | 0.20 | 91 | 523.2 |
| 20260505092007 | 11 | 5 | 8.0 | 19.3 | 0.00 | 0.00 | 0.20 | 91 | 514.2 |
| 20260505091507 | 11 | 23 | 8.0 | 19.3 | 0.00 | 0.00 | 0.20 | 91 | 484.9 |
| 20260505091007 | 11 | 18 | 8.0 | 19.3 | 0.00 | 0.00 | 0.20 | 91 | 533.1 |
| 20260505090506 | 11 | 9 | 6.4 | 20.9 | 0.00 | 0.00 | 0.20 | 92 | 578.1 |
| 20260505090006 | 11 | 27 | 11.3 | 25.7 | 0.00 | 0.00 | 0.20 | 92 | 370.1 |
| 20260505084950 | 11 | 46 | 9.7 | 25.7 | 0.00 | 0.00 | 0.20 | 92 | 347.4 |
| 20260505084449 | 11 | 46 | 11.3 | 40.2 | 0.00 | 0.00 | 0.20 | 92 | 365.1 |
| 20260505083948 | 11 | 48 | 8.0 | 40.2 | 0.00 | 0.00 | 0.20 | 92 | 384.5 |
| 20260505083447 | 12 | 58 | 9.7 | 29.0 | 0.00 | 0.00 | 0.20 | 92 | 351.4 |
| 20260505082946 | 12 | 54 | 11.3 | 29.0 | 0.05 | 0.00 | 0.20 | 91 | 380.4 |
| 20260505082445 | 12 | 41 | 11.3 | 24.1 | 0.10 | 0.00 | 0.20 | 91 | 420.1 |
| 20260505081944 | 12 | 29 | 8.0 | 22.5 | 0.20 | 0.00 | 0.20 | 91 | 430.0 |
| 20260505081443 | 12 | 25 | 8.0 | 22.5 | 0.20 | 0.00 | 0.20 | 91 | 476.5 |
| 20260505080942 | 13 | 18 | 9.7 | 25.7 | 0.20 | 0.00 | 0.20 | 90 | 551.7 |
| 20260505080441 | 13 | 16 | 9.7 | 25.7 | 0.20 | 0.00 | 0.20 | 90 | 547.8 |
| 20260505075941 | 13 | 23 | 9.7 | 19.3 | 0.20 | 0.00 | 0.20 | 91 | 527.6 |
| 20260505075440 | 13 | 20 | 8.0 | 19.3 | 0.20 | 0.00 | 0.20 | 90 | 503.1 |
| 20260505074939 | 13 | 8 | 3.2 | 20.9 | 0.20 | 0.00 | 0.20 | 89 | 615.8 |
| 20260505074438 | 13 | 15 | 3.2 | 20.9 | 0.20 | 0.00 | 0.20 | 87 | 502.2 |
| 20260505073937 | 14 | 17 | 4.8 | 24.1 | 0.20 | 0.00 | 0.20 | 85 | 554.2 |
| 20260505073436 | 15 | 20 | 6.4 | 30.6 | 0.18 | 0.00 | 0.18 | 82 | 520.1 |
| 20260505072935 | 16 | 19 | 12.9 | 30.6 | 0.18 | 0.00 | 0.18 | 78 | 585.9 |
| 20260505072434 | 17 | 357 | 9.7 | 30.6 | 0.10 | 0.00 | 0.10 | 74 | 718.5 |
| 20260505071931 | 18 | 0 | 14.5 | 30.6 | 0.00 | 0.00 | 0.00 | 68 | 772.5 |
| 20260505071431 | 19 | 350 | 6.4 | 19.3 | 0.00 | 0.00 | 0.00 | 65 | 881.6 |
| 20260505070930 | 20 | 318 | 6.4 | 24.1 | 0.00 | 0.00 | 0.00 | 73 | 898.4 |
| 20260505065913 | 20 | 226 | 3.2 | 24.1 | 0.00 | 0.00 | 0.00 | 72 | 838.2 |
| 20260505065413 | 20 | 229 | 3.2 | 24.1 | 0.00 | 0.00 | 0.00 | 72 | 838.0 |
| 20260505064911 | 20 | 230 | 3.2 | 24.1 | 0.00 | 0.00 | 0.00 | 72 | 831.6 |
| 20260505064410 | 20 | 239 | 4.8 | 24.1 | 0.00 | 0.00 | 0.00 | 72 | 840.9 |
| 20260505063909 | 20 | 229 | 4.8 | 24.1 | 0.00 | 0.00 | 0.00 | 72 | 812.9 |
| 20260505063409 | 20 | 204 | 4.8 | 24.1 | 0.00 | 0.00 | 0.00 | 72 | 789.2 |
| 20260505062909 | 20 | 209 | 4.8 | 24.1 | 0.00 | 0.00 | 0.00 | 72 | 790.9 |
| 20260505062408 | 20 | 220 | 4.8 | 24.1 | 0.00 | 0.00 | 0.00 | 72 | 788.8 |
| 20260505061907 | 20 | 208 | 4.8 | 24.1 | 0.00 | 0.00 | 0.00 | 72 | 792.7 |
| 20260505060336 | 20 | 223 | 4.8 | 24.1 | 0.00 | 0.00 | 0.00 | 72 | 804.5 |
| 20260505055835 | 20 | 221 | 4.8 | 24.1 | 0.00 | 0.00 | 0.00 | 72 | 783.9 |
| 20260505055334 | 20 | 207 | 4.8 | 24.1 | 0.00 | 0.00 | 0.00 | 72 | 766.5 |
| 20260505054833 | 20 | 187 | 3.2 | 24.1 | 0.00 | 0.00 | 0.00 | 72 | 766.2 |
| 20260505054332 | 20 | 192 | 3.2 | 24.1 | 0.00 | 0.00 | 0.00 | 72 | 789.2 |
| 20260505053831 | 20 | 223 | 4.8 | 24.1 | 0.00 | 0.00 | 0.00 | 72 | 798.6 |
| 20260505053331 | 20 | 224 | 4.8 | 24.1 | 0.00 | 0.00 | 0.00 | 71 | 771.9 |
| 20260505052830 | 20 | 178 | 4.8 | 24.1 | 0.00 | 0.00 | 0.00 | 71 | 741.3 |
| 20260505052329 | 20 | 204 | 4.8 | 24.1 | 0.00 | 0.00 | 0.00 | 71 | 758.1 |
| 20260505051828 | 20 | 208 | 4.8 | 24.1 | 0.00 | 0.00 | 0.00 | 71 | 754.2 |
| 20260505051327 | 20 | 206 | 4.8 | 24.1 | 0.00 | 0.00 | 0.00 | 71 | 739.5 |
| 20260505050310 | 20 | 146 | 3.2 | 24.1 | 0.00 | 0.00 | 0.00 | 71 | 709.7 |
| 20260505041304 | 21 | 147 | 1.6 | 24.1 | 0.00 | 0.00 | 0.00 | 68 | 698.8 |
| 20260505040804 | 21 | 206 | 4.8 | 24.1 | 0.00 | 0.00 | 0.00 | 68 | 753.6 |
| 20260505040304 | 21 | 186 | 3.2 | 24.1 | 0.00 | 0.00 | 0.00 | 68 | 757.3 |
| 20260505034731 | 21 | 207 | 4.8 | 24.1 | 0.00 | 0.00 | 0.00 | 67 | 748.4 |
| 20260505034231 | 21 | 181 | 3.2 | 24.1 | 0.00 | 0.00 | 0.00 | 67 | 727.8 |
| 20260505032658 | 21 | 232 | 3.2 | 24.1 | 0.00 | 0.00 | 0.00 | 66 | 799.9 |
| 20260505032157 | 22 | 208 | 3.2 | 24.1 | 0.00 | 0.00 | 0.00 | 66 | 776.2 |
| 20260505031656 | 22 | 205 | 4.8 | 24.1 | 0.00 | 0.00 | 0.00 | 65 | 784.7 |
| 20260505030639 | 22 | 203 | 4.8 | 24.1 | 0.00 | 0.00 | 0.00 | 65 | 788.7 |
| 20260505030138 | 22 | 226 | 3.2 | 24.1 | 0.00 | 0.00 | 0.00 | 65 | 791.0 |
| 20260505025637 | 22 | 197 | 3.2 | 24.1 | 0.00 | 0.00 | 0.00 | 65 | 741.0 |
| 20260505025136 | 22 | 158 | 3.2 | 24.1 | 0.00 | 0.00 | 0.00 | 65 | 721.8 |
| 20260505024635 | 22 | 216 | 4.8 | 24.1 | 0.00 | 0.00 | 0.00 | 65 | 771.0 |
| 20260505024134 | 22 | 204 | 3.2 | 24.1 | 0.00 | 0.00 | 0.00 | 65 | 753.6 |
| 20260505023633 | 22 | 191 | 3.2 | 24.1 | 0.00 | 0.00 | 0.00 | 65 | 747.7 |
| 20260505023132 | 22 | 231 | 3.2 | 24.1 | 0.00 | 0.00 | 0.00 | 65 | 768.1 |
| 20260505022631 | 22 | 206 | 4.8 | 24.1 | 0.00 | 0.00 | 0.00 | 66 | 743.9 |
| 20260505022131 | 22 | 188 | 3.2 | 24.1 | 0.00 | 0.00 | 0.00 | 66 | 753.1 |
| 20260505021629 | 22 | 228 | 3.2 | 24.1 | 0.00 | 0.00 | 0.00 | 66 | 794.5 |
| 20260505021128 | 22 | 202 | 6.4 | 24.1 | 0.00 | 0.00 | 0.00 | 66 | 774.9 |
| 20260505020628 | 22 | 210 | 6.4 | 24.1 | 0.00 | 0.00 | 0.00 | 66 | 778.8 |
| 20260505015610 | 22 | 206 | 8.0 | 24.1 | 0.00 | 0.00 | 0.00 | 66 | 757.4 |
| 20260505015109 | 22 | 178 | 6.4 | 24.1 | 0.00 | 0.00 | 0.00 | 66 | 754.4 |
| 20260505014608 | 23 | 213 | 8.0 | 24.1 | 0.00 | 0.00 | 0.00 | 66 | 785.9 |
| 20260505014108 | 23 | 218 | 8.0 | 24.1 | 0.00 | 0.00 | 0.00 | 65 | 785.8 |
| 20260505013607 | 23 | 202 | 8.0 | 24.1 | 0.00 | 0.00 | 0.00 | 65 | 767.8 |
| 20260505012035 | 23 | 201 | 11.3 | 22.5 | 0.00 | 0.00 | 0.00 | 65 | 765.2 |
| 20260505011534 | 23 | 193 | 9.7 | 22.5 | 0.00 | 0.00 | 0.00 | 65 | 760.8 |
| 20260505011032 | 23 | 210 | 11.3 | 20.9 | 0.00 | 0.00 | 0.00 | 64 | 771.5 |
| 20260505010531 | 23 | 197 | 9.7 | 20.9 | 0.00 | 0.00 | 0.00 | 64 | 760.8 |
| 20260505010030 | 23 | 193 | 8.0 | 20.9 | 0.00 | 0.00 | 0.00 | 63 | 776.8 |
| 20260505005530 | 23 | 210 | 6.4 | 20.9 | 0.00 | 0.00 | 0.00 | 63 | 796.0 |
| 20260505005028 | 23 | 220 | 9.7 | 20.9 | 0.00 | 0.00 | 0.00 | 63 | 782.6 |
| 20260505004527 | 24 | 209 | 12.9 | 20.9 | 0.00 | 0.00 | 0.00 | 62 | 768.3 |
| 20260505004027 | 24 | 206 | 11.3 | 20.9 | 0.00 | 0.00 | 0.00 | 62 | 776.0 |
| 20260505003527 | 24 | 215 | 8.0 | 20.9 | 0.00 | 0.00 | 0.00 | 61 | 788.2 |
| 20260505003026 | 24 | 209 | 8.0 | 20.9 | 0.00 | 0.00 | 0.00 | 61 | 787.1 |
| 20260505002525 | 25 | 202 | 9.7 | 20.9 | 0.00 | 0.00 | 0.00 | 61 | 781.7 |
| 20260505001508 | 25 | 214 | 8.0 | 20.9 | 0.00 | 0.00 | 0.00 | 60 | 797.1 |
| 20260505001007 | 25 | 216 | 8.0 | 20.9 | 0.00 | 0.00 | 0.00 | 60 | 790.0 |
| 20260505000507 | 25 | 210 | 9.7 | 20.9 | 0.00 | 0.00 | 0.00 | 59 | 789.1 |
| 20260504235451 | 25 | 223 | 8.0 | 20.9 | 0.00 | 0.00 | 0.00 | 58 | 802.1 |
| 20260504233917 | 26 | 212 | 9.7 | 20.9 | 0.00 | 0.00 | 0.00 | 56 | 783.6 |
| 20260504232900 | 26 | 210 | 9.7 | 20.9 | 0.00 | 0.00 | 0.00 | 54 | 800.3 |
| 20260504232400 | 26 | 225 | 9.7 | 20.9 | 0.00 | 0.00 | 0.00 | 52 | 814.8 |
| 20260504231859 | 26 | 210 | 8.0 | 20.9 | 0.00 | 0.00 | 0.00 | 52 | 802.2 |
| 20260504231358 | 26 | 212 | 9.7 | 20.9 | 0.00 | 0.00 | 0.00 | 51 | 808.4 |
| 20260504230857 | 27 | 214 | 6.4 | 20.9 | 0.00 | 0.00 | 0.00 | 51 | 804.3 |
| 20260504230357 | 27 | 223 | 8.0 | 20.9 | 0.00 | 0.00 | 0.00 | 50 | 810.9 |
| 20260504225855 | 27 | 218 | 11.3 | 20.9 | 0.00 | 0.00 | 0.00 | 49 | 813.2 |
| 20260504225355 | 26 | 218 | 8.0 | 22.5 | 0.00 | 0.00 | 0.00 | 50 | 818.7 |
| 20260504224339 | 27 | 222 | 6.4 | 22.5 | 0.00 | 0.00 | 0.00 | 50 | 810.9 |
| 20260504223322 | 27 | 215 | 8.0 | 22.5 | 0.00 | 0.00 | 0.00 | 51 | 808.5 |
| 20260504222822 | 27 | 225 | 8.0 | 22.5 | 0.00 | 0.00 | 0.00 | 49 | 815.4 |
| 20260504222321 | 27 | 218 | 8.0 | 22.5 | 0.00 | 0.00 | 0.00 | 50 | 803.8 |
| 20260504221821 | 27 | 231 | 4.8 | 22.5 | 0.00 | 0.00 | 0.00 | 49 | 815.7 |
| 20260504220805 | 27 | 210 | 8.0 | 22.5 | 0.00 | 0.00 | 0.00 | 49 | 800.4 |
| 20260504220304 | 27 | 214 | 9.7 | 22.5 | 0.00 | 0.00 | 0.00 | 48 | 818.3 |
| 20260504214731 | 27 | 259 | 6.4 | 22.5 | 0.00 | 0.00 | 0.00 | 48 | 867.6 |
| 20260504214230 | 27 | 226 | 8.0 | 22.5 | 0.00 | 0.00 | 0.00 | 49 | 850.6 |
| 20260504213729 | 27 | 233 | 8.0 | 22.5 | 0.00 | 0.00 | 0.00 | 49 | 865.6 |
| 20260504213228 | 27 | 257 | 4.8 | 22.5 | 0.00 | 0.00 | 0.00 | 50 | 888.0 |
| 20260504212727 | 27 | 263 | 4.8 | 22.5 | 0.00 | 0.00 | 0.00 | 51 | 871.9 |
| 20260504212226 | 27 | 226 | 8.0 | 22.5 | 0.00 | 0.00 | 0.00 | 48 | 812.3 |
| 20260504211725 | 27 | 219 | 11.3 | 22.5 | 0.00 | 0.00 | 0.00 | 48 | 797.1 |
| 20260504211224 | 27 | 221 | 14.5 | 22.5 | 0.00 | 0.00 | 0.00 | 47 | 796.9 |
| 20260504210723 | 27 | 206 | 4.8 | 20.9 | 0.00 | 0.00 | 0.00 | 50 | 787.9 |
| 20260504205706 | 27 | 225 | 9.7 | 20.9 | 0.00 | 0.00 | 0.00 | 50 | 796.7 |
| 20260504204649 | 27 | 215 | 12.9 | 22.5 | 0.00 | 0.00 | 0.00 | 47 | 784.4 |
| 20260504204148 | 27 | 217 | 11.3 | 20.9 | 0.00 | 0.00 | 0.00 | 48 | 796.6 |
| 20260504203647 | 27 | 211 | 8.0 | 22.5 | 0.00 | 0.00 | 0.00 | 50 | 790.2 |
| 20260504203146 | 27 | 223 | 8.0 | 22.5 | 0.00 | 0.00 | 0.00 | 49 | 813.0 |
| 20260504202645 | 27 | 215 | 9.7 | 22.5 | 0.00 | 0.00 | 0.00 | 50 | 812.7 |
| 20260504201628 | 27 | 220 | 9.7 | 22.5 | 0.00 | 0.00 | 0.00 | 48 | 805.2 |
| 20260504201127 | 27 | 223 | 9.7 | 22.5 | 0.00 | 0.00 | 0.00 | 48 | 801.2 |
| 20260504200626 | 27 | 211 | 12.9 | 20.9 | 0.00 | 0.00 | 0.00 | 49 | 793.8 |
| 20260504200125 | 27 | 225 | 9.7 | 20.9 | 0.00 | 0.00 | 0.00 | 48 | 805.6 |
| 20260504195624 | 27 | 200 | 8.0 | 20.9 | 0.00 | 0.00 | 0.00 | 50 | 790.7 |
| 20260504195123 | 26 | 209 | 9.7 | 20.9 | 0.00 | 0.00 | 0.00 | 49 | 789.1 |
| 20260504194106 | 27 | 212 | 8.0 | 19.3 | 0.00 | 0.00 | 0.00 | 48 | 786.8 |
| 20260504193059 | 27 | 208 | 8.0 | 20.9 | 0.00 | 0.00 | 0.00 | 48 | 802.2 |
| 20260504192558 | 27 | 226 | 8.0 | 20.9 | 0.00 | 0.00 | 0.00 | 48 | 821.6 |
| 20260504192057 | 27 | 211 | 11.3 | 20.9 | 0.00 | 0.00 | 0.00 | 47 | 816.2 |
| 20260504191556 | 27 | 219 | 11.3 | 20.9 | 0.00 | 0.00 | 0.00 | 47 | 824.0 |
| 20260504191055 | 27 | 214 | 11.3 | 20.9 | 0.00 | 0.00 | 0.00 | 47 | 826.5 |
| 20260504190554 | 27 | 227 | 4.8 | 19.3 | 0.00 | 0.00 | 0.00 | 50 | 855.0 |
| 20260504190053 | 27 | 212 | 8.0 | 20.9 | 0.00 | 0.00 | 0.00 | 50 | 822.1 |
| 20260504185552 | 26 | 229 | 8.0 | 20.9 | 0.00 | 0.00 | 0.00 | 50 | 816.7 |
| 20260504185052 | 26 | 226 | 8.0 | 20.9 | 0.00 | 0.00 | 0.00 | 48 | 814.7 |
| 20260504184551 | 26 | 225 | 8.0 | 20.9 | 0.00 | 0.00 | 0.00 | 48 | 801.4 |
| 20260504184050 | 26 | 215 | 12.9 | 20.9 | 0.00 | 0.00 | 0.00 | 49 | 804.0 |
| 20260504182011 | 26 | 217 | 9.7 | 20.9 | 0.00 | 0.00 | 0.00 | 50 | 809.8 |
| 20260504181510 | 26 | 225 | 6.4 | 20.9 | 0.00 | 0.00 | 0.00 | 49 | 814.7 |
| 20260504180453 | 26 | 212 | 11.3 | 20.9 | 0.00 | 0.00 | 0.00 | 49 | 806.8 |
| 20260504175437 | 26 | 206 | 11.3 | 20.9 | 0.00 | 0.00 | 0.00 | 48 | 836.1 |
| 20260504174936 | 26 | 253 | 6.4 | 20.9 | 0.00 | 0.00 | 0.00 | 50 | 880.1 |
| 20260504174435 | 26 | 222 | 8.0 | 20.9 | 0.00 | 0.00 | 0.00 | 49 | 842.2 |
| 20260504173418 | 25 | 236 | 9.7 | 20.9 | 0.00 | 0.00 | 0.00 | 50 | 834.1 |
| 20260504172917 | 25 | 222 | 9.7 | 20.9 | 0.00 | 0.00 | 0.00 | 50 | 838.5 |
| 20260504171900 | 25 | 219 | 9.7 | 30.6 | 0.00 | 0.00 | 0.00 | 51 | 830.2 |
| 20260504170327 | 24 | 230 | 8.0 | 20.9 | 0.00 | 0.00 | 0.00 | 53 | 866.1 |
| 20260504160300 | 22 | 209 | 6.4 | 19.3 | 0.00 | 0.00 | 0.00 | 57 | 796.7 |
| 20260504150737 | 21 | 236 | 14.5 | 29.0 | 0.00 | 0.00 | 0.00 | 54 | 825.7 |